www.pogodaiklimat.ru

Погода и климат >> Архив погоды >> Россия >> Архангельская область >> Сура


ПОГОДА в Суре

  • Прогноз погоды в Суре
  • Монитор погоды в Суре

АРХИВ ПОГОДЫ в Суре

Время (UTC), дата Ветер
(напр.,м/с)
 
Видим.   Явления Облачность Т
(С)
Тd
(С)
f
(%)
Тe
(С)
Тes
(С)
Комфортность P
(гПа)
Po
(гПа)
Тmin
(С)
Tmax
(С)
R
(мм)
R24
(мм)
S
(см)
21 17.06 ЮВ 2 20 км 3/0
[Ac trans Cc]
+7.5 +3.2 74 +6 +6 1006.8 999.2
00 18.06 В 1 20 км 3/3 1000 м
[Cu Sc]
+5.5 +3.4 86 +4 +4 1007.0 999.4
03 18.06 Ю 2 20 км 1/0 2000 м
[Ac trans]
+11.4 +4.4 62 +10 +13 1006.4 998.9 +4.8
06 18.06 СЗ 2 20 км 9/1 600 м
[Cb cap Ac lent]
+16.9 +5.9 48 +17 +20 1005.6 998.3
09 18.06 З 3 20 км 9/0
[Ac lent]
+16.1 +6.4 53 +16 +19 1006.3 999.0
12 18.06 З 4 20 км 3/3 1000 м
[Cu hum]
+19.2 +6.5 44 +20 +24 1005.1 997.8
15 18.06 СЗ 5
{10}
20 км 1/1 1000 м
[Cu hum]
+19.6 +4.2 36 +20 +21 1005.1 997.9 +20.3
18 18.06 С 2 20 км 3/0
[Ac lent Ci fib]
+15.6 +3.2 43 +16 +16 1006.4 999.0
21 18.06 С 2 20 км 3/0
[Ac trans]
+9.0 +2.7 65 +8 +8 1007.9 1000.4
00 19.06 С 3 20 км 4/3 1000 м
[Sc Ac trans]
+6.6 +2.1 73 +4 +4 1009.7 1002.1
03 19.06 СЗ 2 20 км ясно +7.9 +1.9 66 +6 +9 1010.1 1002.6 +6.3
06 19.06 СЗ 3 20 км 1/0
[Ci fib]
+12.2 +2.3 51 +11 +19 1010.1 1002.6
09 19.06 штиль 0 20 км 9/0
[Ac lent Cs]
+16.0 +2.9 41 +16 +27 1009.1 1001.8
12 19.06 СВ 1 20 км в посл. час ливневой дождь 10/8 870 м
[Cb cap Ac lent]
+15.1 +5.3 52 +16 +16 1008.6 1001.2
15 19.06 Ю 4 10 км слаб. ливневой дождь 9/9 660 м
[Cb cap]
+11.3 +10.0 92 +9 +9 1007.0 999.6 +16.3 6
18 19.06 ЮВ 2 20 км {ливн. осадки} 10/3 600 м
[Cb cap Ac lent]
+12.8 +11.1 89 +12 +12 1005.9 998.5
21 19.06 ЮВ 1 20 км в посл. час ливневой дождь 10/5 600 м
[Cb cap Ac lent]
+12.1 +11.0 93 +12 +12 1004.1 996.7
00 20.06 СЗ 2 4000 м слаб. ливневой дождь 10/8 660 м
[Cb cap Ac lent]
+12.4 +11.7 95 +11 +11 1004.5 997.1
03 20.06 З 3 20 км {ливн. осадки} 9/9 420 м
[Cb cap]
+14.2 +12.1 87 +13 +13 1005.4 998.1 +11.3 6
06 20.06 СЗ 7-10
{11}
20 км {ливн. осадки} 9/9 480 м
[Cb cap]
+14.0 +10.0 77 +12 +12 1007.2 999.8
09 20.06 С 5
{13}
20 км 10/10 870 м
[Cu Sc]
+10.7 +6.1 73 +8 +8 1011.7 1004.2
12 20.06 СЗ 5
{10}
20 км 6/6 1000 м
[Cu med, cong]
+13.2 +5.7 60 +11 +13 1013.7 1006.2
15 20.06 СЗ 3 20 км 9/9 960 м
[Cu Sc]
+13.0 +5.3 59 +12 +12 1014.7 1007.2 +15.1
18 20.06 ЮЗ 1 20 км 3/3 1000 м
[Sc]
+11.2 +7.8 80 +11 +11 1014.8 1007.3
21 20.06 З 1 20 км 8/8 870 м
[Sc]
+8.6 +6.8 88 +8 +8 1015.4 1007.9
00 21.06 Ю 1 20 км 9/9 900 м
[Sc]
+7.8 +6.1 89 +7 +7 1016.8 1009.2
03 21.06 штиль 0 20 км 4/0
[Ci fib]
+12.2 +6.4 68 +12 +15 1017.4 1009.9 +7.2
06 21.06 штиль 0 20 км 8/0
[Ac trans]
+15.9 +4.4 46 +16 +22 1017.0 1009.6
09 21.06 штиль 0 20 км 9/1 1000 м
[Cu hum Ac trans]
+18.3 +4.4 40 +18 +26 1016.4 1009.1
12 21.06 штиль 0 20 км 9/3 600 м
[Cu Sc Ac As]
+17.8 +7.0 49 +18 +21 1015.9 1008.6
15 21.06 В 2 20 км 9/0 2000 м
[Ac trans]
+18.4 +7.1 48 +19 +20 1014.0 1006.7 +19.0
18 21.06 ЮВ 3 20 км 10/6 900 м
[Cu Sc Ac lent]
+16.2 +7.9 58 +16 +16 1012.2 1004.9
21 21.06 ЮВ 3 20 км 10/8 930 м
[Sc Ac und]
+15.5 +7.5 59 +15 +15 1009.4 1002.0
00 22.06 В 1 20 км 6/1 1000 м
[Sc Ac lent Ci fib]
+12.7 +8.2 74 +13 +13 1008.3 1000.8
03 22.06 ЮВ 1 4000 м слаб. ливневой дождь 10/10 630 м
[Cb cap]
+14.2 +11.0 81 +15 +15 1006.2 998.9 +12.4 0.4
06 22.06 З 2 20 км в посл. час ливневой дождь 8/0
[Ac lent Ci sp]
+23.0 +16.5 67 +28 +34 душно 1004.6 997.5
09 22.06 З 4
{10}
20 км 9/6 1000 м
[Cu med, cong Ci fib]
+25.4 +14.5 51 +28 +31 жарко 1004.2 997.1
12 22.06 СЗ 5
{11}
20 км 6/4 1000 м
[Cu med, cong Ci fib]
+26.8 +14.3 46 +29 +32 жарко 1003.5 996.5
15 22.06 СЗ 1 20 км гроза без осадков 9/3 600 м
[Cb cap Ac lent]
+24.7 +16.6 61 +28 +29 душно 1003.8 996.7 +27.2 0.3
18 22.06 В 2 4000 м гроза, ливневой дождь 9/8 900 м
[Cb cap Ac inh]
+18.2 +17.4 95 +19 +19 1004.3 997.1
21 22.06 Ю 2 500 м туман {ливн. осадки} 8/3 600 м
[Cu med, cong Ac lent]
+16.5 +15.8 96 +17 +17 1004.0 996.7
00 23.06 ЮЗ 3 20 км {ливн. осадки, туман} 4/1 600 м
[Cu med, cong Ac trans]
+16.4 +15.6 95 +16 +16 1003.8 996.5
03 23.06 З 5
{11}
20 км 1/1 600 м
[Cu med, cong]
+16.3 +12.1 76 +15 +17 1005.3 998.0 +15.5 8
06 23.06 З 6
{14}
20 км 9/9 660 м
[Cu Sc]
+17.2 +9.1 59 +16 +17 1006.4 999.2
09 23.06 З 6-10
{16}
20 км 9/9 800 м
[Cu Sc]
+17.8 +5.6 45 +17 +18 1008.1 1000.9
12 23.06 З 8-20
{18}
20 км в посл. час ливневой дождь 9/9 700 м
[Cb cap]
+18.1 +5.9 45 +17 +17 1009.1 1001.8
15 23.06 З 5
{20}
20 км {ливн. осадки} 9/6 600 м
[Cb cap Ac lent]
+14.1 +9.0 71 +12 +13 1010.5 1003.1 +19.8 1
18 23.06 З 3
{10}
20 км {ливн. осадки} 8/3 600 м
[Cb cap Ac cuf Ci sp]
+13.3 +6.1 62 +12 +12 1010.9 1003.5
21 23.06 З 4 20 км 10/10 1020 м
[Sc]
+12.3 +6.3 67 +10 +10 1011.3 1003.9
00 24.06 З 4 20 км 10/10 800 м
[Sc]
+11.1 +6.6 74 +9 +9 1012.1 1004.6
03 24.06 З 3 4000 м слаб. ливневой дождь 10/10 450 м
[Cb cap]
+9.7 +8.5 92 +7 +7 1013.2 1005.7 +9.7 0.7
06 24.06 СЗ 3 20 км в посл. час ливневой дождь 10/10 570 м
[Cb cap]
+9.2 +6.8 85 +7 +7 1015.2 1007.6 +8.4
09 24.06 СЗ 3 20 км {ливн. осадки} 10/10 630 м
[Cb cap]
+10.5 +6.5 76 +9 +9 1016.7 1009.2
12 24.06 СЗ 5 20 км {ливн. осадки} 10/10 900 м
[Cb cap]
+9.9 +6.0 77 +7 +7 1018.2 1010.6
15 24.06 СЗ 4 20 км 10/10 900 м
[Sc]
+9.6 +5.3 75 +7 +7 1019.6 1012.0 +11.5 0.3

 

Местоположение метеостанции Сура (Архангельская область, Россия): широта 63.58 долгота 45.63 высота над уровнем моря 62 м.

В архиве по умолчанию представлена погода в Суре за последнюю неделю. Архивные данные за месяц целиком и за предыдущие месяцы, начиная с января 2011 года, Вы можете получить, выбрав интересующий диапазон дат из раскрывающегося списка и нажав кнопку "Ввод!".


*Определитесь, кто Вы:
робот инопланетянин человек

Внимание! Время в таблицах - всемирное. Для получения местного времени необходимо прибавить поправку, которая равна 3 ч.

Смотрите также архив погоды в соседних городах и на ближайших метеорологических станциях:

Погода в Карпогорах (Архангельская область, Россия) (73 км)
Погода в Вендинге (Коми, Россия) (115 км)
Погода в Лешуконском (Архангельская область, Россия) (147 км)
Погода в Верхней Тойме (Архангельская область, Россия) (153 км)
Погода в Койнасе (Архангельская область, Россия) (163 км)
Погода в Кослане (Коми, Россия) (164 км)
Погода в Двинском Березнике (Архангельская область, Россия) (166 км)
Погода в Пинеге (Архангельская область, Россия) (167 км)
Погода в Емецке (Архангельская область, Россия) (190 км)
Погода в Холмогорах (Архангельская область, Россия) (206 км)

Пояснения к столбцам:

Ветер - указаны скорость ветра в м/с - средняя за 10 мин, порывы в срок и между сроками (в фигурных скобках) и направление, откуда дует ветер: С - северный, СВ - северо-восточный, В - восточный, ЮВ - юго-восточный, Ю - южный, ЮЗ - юго-западный, З - западный, СЗ - северо-западный.
Видимость - горизонтальная дальность видимости в метрах или километрах. При видимости от 1 до 10 км при отсутствии осадков обычно наблюдается дымка, при ухудшении видимости до 1 км и менее - туман. В сухую погоду видимость может ухудшаться дымом, пылью или мглою.
Явления - указаны атмосферные явления, наблюдавшиеся в срок или в последний час перед сроком; фигурными скобками обозначены явления, наблюдавшиеся между сроками (за 1-3 часа до срока); квадратными скобками обозначены град или гололедные отложения с указанием их диаметра в мм.
Облачность - указаны через наклонную черту общая и нижняя облачность в баллах и высота нижней границы облаков в метрах; квадратными скобками обозначены формы облаков: Ci - перистые, Cs - перисто-слоистые, Cc - перисто-кучевые, Ac - высококучевые, As - высокослоистые, Sc - слоисто-кучевые, Ns - слоисто-дождевые, Cu - кучевые, Cb - кучево-дождевые. Подробнее классификацию облаков см. в Атласе облаков (PDF).
T - Температура воздуха - температура, измеренная на высоте 2 м над землей.
Td - Температура точки росы - температура, при понижении до которой содержащийся в воздухе водяной пар достигнет насыщения.
f - Относительная влажность воздуха - влажноcть воздуха, измеренная на высоте 2 м над землей.
Te - Эффективная температура - температура, которую ощущает одетый по сезону человек в тени. Характеристика душности погоды. При расчете учитывается влияние влажности воздуха и скорости ветра на теплоощущения человека.
Tes - Эффективная температура на солнце - температура, которую ощущает человек, с поправкой на солнечный нагрев. Характеристика знойности погоды. Зависит от высоты солнца над горизонтом, облачности и скорости ветра. Ночью, в пасмурную погоду, а также при ветре 12 м/с и более поправка равна нулю.
P - Атмосферное давление - приведенное к уровню моря атмосферное давление.
Po - Атмосферное давление - измеренное на уровне метеостанции атмосферное давление.
Tmin - Минимальная температура - минимум температуры воздуха на высоте 2 м над землей.
Tmax - Максимальная температура - максимум температуры воздуха на высоте 2 м над землей.
R - Количество осадков - Количество выпавших осадков за период времени, мм. При наведении курсора мыши на число - период времени, за который выпало указанное количество осадков.
R24 - Количество осадков - Количество выпавших осадков за 24 часа, мм.
S - Снежный покров - Высота снежного покрова, см. При наведении курсора мыши на число - состояние снежного покрова и степень покрытия местности в баллах.